Regional Weather Roundup
Issued by NWS

Home | Current Version | Previous Version | Graphics & Text | Print | Product List | Glossary On
Versions: 1 2 3 4 5 6 7 8 9 10 11 12 13 14 15 16 17 18 19 20 21 22 23 24 25 26 27 28 29 30 31 32 33 34 35 36 37 38 39 40 41 42 43 44 45 46 47 48 49 50
000
ASUS43 KFSD 300102
RWRSD

WEATHER ROUNDUP FOR SOUTH DAKOTA
NATIONAL WEATHER SERVICE SIOUX FALLS SD
800 PM CDT MON JUN 29 2015

NOTE: "FAIR" INDICATES FEW OR NO CLOUDS BELOW 12,000 FEET WITH NO
SIGNIFICANT WEATHER AND/OR OBSTRUCTIONS TO VISIBILITY.


SDZ001>005-009-010-012>017-300200-
NORTHWEST AND NORTH CENTRAL SOUTH DAKOTA

CITY           SKY/WX    TMP DP  RH WIND       PRES   REMARKS
BUFFALO          N/A     88  61  40 W6        29.91F
FAITH            N/A     88  56  33 CALM      29.96F
MOBRIDGE       SUNNY     90  59  35 E6        29.89F
$$

SDZ012>016-024>037-041>051-057-063-072>074-300200-
SOUTHWEST AND SOUTH CENTRAL SOUTH DAKOTA

CITY           SKY/WX    TMP DP  RH WIND       PRES   REMARKS
RAPID CTY ARPT SUNNY     82  63  52 S9        30.03F
PIERRE         SUNNY     87  67  51 NW3       29.90F
CUSTER         MOSUNNY   73  54  51 CALM      30.21F
PHILIP         SUNNY     89  61  38 CALM      29.95F
PINE RIDGE     SUNNY     86  57  37 NE3       30.05F
WINNER         FAIR      88  58  36 N6        29.95F
$$

SDZ004>011-016>023-039-040-300200-
NORTHEAST SOUTH DAKOTA

CITY           SKY/WX    TMP DP  RH WIND       PRES   REMARKS
ABERDEEN       PTSUNNY   83  58  42 NE10      29.89R HAZE
WATERTOWN      SUNNY     76  64  66 N7        29.90R
BROOKINGS      SUNNY     79  63  57 W5        29.91S
SISSETON         N/A     75  63  66 N9        29.87R
$$

SDZ017-020-022-023-036>040-048>070-300200-
SOUTHEAST SOUTH DAKOTA

CITY           SKY/WX    TMP DP  RH WIND       PRES   REMARKS
SIOUX FALLS    SUNNY     78  63  59 W3        29.89S
HURON          PTSUNNY   84  67  56 NW3       29.88S
MITCHELL       MOSUNNY   82  66  58 CALM      29.89F
YANKTON        SUNNY     82  63  51 NW3       29.89S
$$

ABBREVIATIONS USED IN REMARKS
   TC - TEMPERATURE IN CELSIUS
  WCI - WIND CHILL INDEX
   HX - HEAT INDEX
  VSB - VISIBILITY




USA.gov is the U.S. government's official web portal to all federal, state and local government web resources and services.